Radioactive Concentration measured by Seawater Radiation Monitor near Fukushima Daiichi Nuclear Power Station
Date,Time,Cs137(Bq/L),Cs134(Bq/L),Total β(Bq/L)
2017/04/26,00:00,0.29,ND,ND
2017/04/26,00:10,0.30,ND,ND
2017/04/26,00:20,0.26,ND,ND
2017/04/26,00:30,0.26,ND,ND
2017/04/26,00:40,0.29,ND,ND
2017/04/26,00:50,0.32,ND,ND
2017/04/26,01:00,0.30,ND,ND
2017/04/26,01:10,0.33,ND,ND
2017/04/26,01:20,0.37,ND,ND
2017/04/26,01:30,0.37,ND,ND
2017/04/26,01:40,0.33,ND,ND
2017/04/26,01:50,0.38,ND,ND
2017/04/26,02:00,0.39,ND,ND
2017/04/26,02:10,0.40,ND,ND
2017/04/26,02:20,0.42,ND,ND
2017/04/26,02:30,0.44,ND,ND
2017/04/26,02:40,0.47,ND,ND
2017/04/26,02:50,0.49,ND,ND
2017/04/26,03:00,0.48,ND,ND
2017/04/26,03:10,0.48,ND,ND
2017/04/26,03:20,0.48,ND,ND
2017/04/26,03:30,0.46,ND,ND
2017/04/26,03:40,0.43,ND,ND
2017/04/26,03:50,0.40,ND,ND
2017/04/26,04:00,0.40,ND,ND
2017/04/26,04:10,0.39,ND,ND
2017/04/26,04:20,0.43,ND,ND
2017/04/26,04:30,0.38,ND,ND
2017/04/26,04:40,0.40,ND,ND
2017/04/26,04:50,0.42,ND,ND
2017/04/26,05:00,0.44,ND,ND
2017/04/26,05:10,0.45,ND,ND
2017/04/26,05:20,0.44,ND,ND
2017/04/26,05:30,0.47,ND,ND
2017/04/26,05:40,0.48,ND,ND
2017/04/26,05:50,0.48,ND,ND
2017/04/26,06:00,0.48,ND,ND
2017/04/26,06:10,0.46,ND,ND
2017/04/26,06:20,0.48,ND,ND
2017/04/26,06:30,0.48,ND,ND
2017/04/26,06:40,0.49,ND,ND
2017/04/26,06:50,0.48,ND,ND
2017/04/26,07:00,0.50,ND,ND
2017/04/26,07:10,0.52,ND,ND
2017/04/26,07:20,0.52,ND,ND
2017/04/26,07:30,0.52,ND,ND
2017/04/26,07:40,0.52,ND,ND
2017/04/26,07:50,0.54,ND,ND
2017/04/26,08:00,0.53,ND,ND
2017/04/26,08:10,0.53,ND,ND
2017/04/26,08:20,0.50,0.028,ND
2017/04/26,08:30,0.50,0.025,ND
2017/04/26,08:40,0.55,ND,ND
2017/04/26,08:50,0.53,ND,ND
2017/04/26,09:00,0.55,ND,ND
2017/04/26,09:10,0.54,ND,ND
2017/04/26,09:20,0.53,ND,ND
2017/04/26,09:30,0.53,ND,ND
2017/04/26,09:40,0.52,ND,ND
2017/04/26,09:50,0.52,ND,ND
2017/04/26,10:00,0.47,ND,ND
2017/04/26,10:10,0.45,ND,ND
2017/04/26,10:20,0.44,ND,ND
2017/04/26,10:30,0.45,ND,ND
2017/04/26,10:40,0.43,ND,10
2017/04/26,10:50,0.42,ND,9.2
2017/04/26,11:00,0.43,ND,ND
2017/04/26,11:10,0.42,ND,ND
2017/04/26,11:20,0.40,ND,ND
2017/04/26,11:30,0.38,ND,ND
2017/04/26,11:40,0.35,ND,ND
2017/04/26,11:50,0.34,ND,ND
2017/04/26,12:00,0.34,ND,ND
2017/04/26,12:10,0.33,ND,ND
2017/04/26,12:20,0.36,ND,ND
2017/04/26,12:30,0.35,ND,ND
2017/04/26,12:40,0.37,ND,ND
2017/04/26,12:50,0.37,ND,ND
2017/04/26,13:00,0.37,ND,ND
2017/04/26,13:10,0.36,ND,ND
2017/04/26,13:20,0.35,ND,ND
2017/04/26,13:30,0.38,ND,ND
2017/04/26,13:40,0.32,ND,ND
2017/04/26,13:50,0.33,ND,ND
2017/04/26,14:00,0.30,ND,ND
2017/04/26,14:10,0.31,ND,ND
2017/04/26,14:20,0.30,ND,ND
2017/04/26,14:30,0.31,ND,ND
2017/04/26,14:40,0.31,ND,ND
2017/04/26,14:50,0.32,ND,ND
2017/04/26,15:00,0.33,ND,ND
2017/04/26,15:10,0.34,ND,9.6
2017/04/26,15:20,0.35,ND,ND
2017/04/26,15:30,0.33,ND,ND
2017/04/26,15:40,0.34,ND,ND
2017/04/26,15:50,0.36,ND,ND
2017/04/26,16:00,0.36,ND,ND
2017/04/26,16:10,0.36,ND,ND
2017/04/26,16:20,0.36,ND,ND
2017/04/26,16:30,0.35,ND,ND
2017/04/26,16:40,0.33,ND,ND
2017/04/26,16:50,0.30,ND,ND
2017/04/26,17:00,0.31,ND,ND
2017/04/26,17:10,0.31,ND,ND
2017/04/26,17:20,0.32,ND,ND
2017/04/26,17:30,0.30,ND,ND
2017/04/26,17:40,0.33,ND,ND
2017/04/26,17:50,0.35,ND,ND
2017/04/26,18:00,0.35,ND,ND
2017/04/26,18:10,0.35,ND,10
2017/04/26,18:20,0.37,ND,10
2017/04/26,18:30,0.38,ND,ND
2017/04/26,18:40,0.41,ND,ND
2017/04/26,18:50,0.40,ND,9.2
2017/04/26,19:00,0.41,ND,ND
2017/04/26,19:10,0.44,ND,ND
2017/04/26,19:20,0.44,ND,ND
2017/04/26,19:30,0.44,ND,ND
2017/04/26,19:40,0.40,ND,ND
2017/04/26,19:50,0.40,ND,8.8
2017/04/26,20:00,0.43,ND,10
2017/04/26,20:10,0.45,ND,9.2
2017/04/26,20:20,0.49,ND,9.5
2017/04/26,20:30,0.54,ND,ND
2017/04/26,20:40,0.52,0.029,ND
2017/04/26,20:50,0.54,0.041,ND
2017/04/26,21:00,0.54,0.046,ND
2017/04/26,21:10,0.55,0.057,ND
2017/04/26,21:20,0.55,0.068,ND
2017/04/26,21:30,0.58,0.060,ND
2017/04/26,21:40,0.62,0.057,ND
2017/04/26,21:50,0.61,0.059,ND
2017/04/26,22:00,0.59,0.070,ND
2017/04/26,22:10,0.55,0.068,ND
2017/04/26,22:20,0.53,0.057,ND
2017/04/26,22:30,0.50,0.056,ND
2017/04/26,22:40,0.47,0.038,10
2017/04/26,22:50,0.45,0.040,10
2017/04/26,23:00,0.44,0.026,10
2017/04/26,23:10,0.45,0.030,10
2017/04/26,23:20,0.43,0.034,ND
2017/04/26,23:30,0.42,0.031,ND
2017/04/26,23:40,0.40,0.032,ND
2017/04/26,23:50,0.41,0.025,ND
